Temp
70 71 68 70 59 54 47 52 57 58 58 61 63 62 58 58 57 52 70 72 72 71 73 74 74 75 75 75 75 75 75 76 76 76 76 76 76 76 76 76 75 76 77 77 76 75 74 74 74
69 75 70 61 52 45 46 53 57 59 63 63 64 60 59 56 65 65 66 72 73 72 73 73 73 74 75 75 75 75 75 75 76 76 76 76 76 76 76 76 75 76 76 76 75 75 74 73 73
74 74 66 57 50 46 48 55 59 63 64 63 61 62 60 62 65 68 71 75 73 72 73 72 72 74 74 74 74 74 75 75 76 76 76 76 76 75 75 75 75 75 75 76 75 74 73 73 73
72 70 64 53 50 51 56 58 62 63 63 65 61 56 62 68 69 71 75 76 73 72 73 70 72 74 74 74 74 74 75 75 75 75 75 75 75 75 75 75 74 74 76 75 74 73 73 72 72
69 63 53 50 51 54 56 62 64 62 61 61 60 54 58 67 72 73 74 77 73 72 72 71 72 73 74 74 74 74 74 74 74 75 75 75 75 74 74 74 74 74 74 74 73 72 71 71 71
64 60 50 47 50 57 59 63 63 60 60 61 59 58 58 67 70 71 73 75 73 73 73 71 69 70 72 73 73 73 73 74 74 74 74 74 74 74 74 74 74 74 74 73 73 71 70 70 70
61 55 50 48 52 55 60 63 60 61 61 60 64 56 59 64 70 72 72 73 73 74 72 69 69 69 67 69 70 71 72 72 72 73 72 72 72 72 72 72 73 73 73 73 72 71 70 70 70
59 57 52 49 52 54 61 62 63 62 60 66 66 56 55 64 70 71 70 70 69 69 70 68 68 69 68 68 66 67 69 70 70 70 69 68 68 69 69 68 70 73 73 72 72 71 70 70 69
61 53 49 51 54 56 61 61 63 63 62 61 63 62 65 69 69 67 66 66 67 69 69 68 67 68 68 68 67 64 65 66 66 66 65 64 66 66 66 65 67 70 71 71 71 70 69 68 67
56 49 52 57 58 58 62 62 63 60 58 58 60 64 67 67 66 65 64 65 65 66 67 67 67 67 67 71 68 67 70 66 66 66 65 64 65 65 66 63 64 67 67 69 70 70 68 64 60
56 51 57 60 60 63 62 60 62 59 54 58 59 61 64 64 64 65 65 65 66 67 67 68 68 67 67 68 67 66 69 68 67 66 64 64 64 62 62 61 61 61 61 63 65 64 63 61 59
53 58 59 61 62 62 61 63 60 59 61 65 64 65 64 63 63 64 64 64 65 66 68 69 68 67 66 67 66 66 66 67 68 68 68 67 64 61 61 60 61 60 61 60 60 60 61 61 60
53 55 60 59 61 59 62 57 56 59 59 64 64 64 63 63 64 64 66 66 66 65 66 67 67 66 67 66 66 66 66 65 66 67 67 68 66 65 61 61 60 60 60 60 59 59 60 60 60
55 56 58 57 57 59 57 55 57 58 59 62 63 62 62 63 64 63 64 66 67 67 66 66 66 66 67 66 65 66 65 66 65 65 67 68 67 67 65 64 61 60 60 60 60 59 59 59 59
55 50 53 53 55 54 57 53 55 57 58 60 61 61 62 63 64 64 66 67 66 65 65 65 66 65 64 64 65 65 65 66 65 65 66 66 66 65 67 65 64 64 64 63 60 59 59 58 59
49 47 42 51 55 55 56 45 56 56 56 58 58 57 60 62 64 65 66 63 63 63 62 61 65 62 62 61 62 63 65 64 64 64 65 66 66 67 67 66 65 66 65 65 63 63 62 61 61
43 37 39 47 54 52 50 45 53 54 56 55 55 56 57 59 61 61 59 61 60 60 60 59 59 59 59 60 61 61 62 63 64 63 64 65 66 69 67 66 66 66 65 64 64 63 63 63 62
38 38 40 41 48 48 46 45 52 53 51 52 52 53 54 57 60 60 58 57 56 56 56 57 57 57 58 58 58 59 59 60 61 62 63 64 66 68 67 67 66 65 64 63 63 62 62 63 63
44 39 40 42 50 46 44 45 49 51 47 50 51 53 53 55 57 57 56 54 54 53 54 54 55 54 55 54 54 56 57 59 61 61 63 63 64 66 65 62 64 66 64 63 64 62 61 60 61
41 39 36 44 48 46 43 43 47 48 49 51 52 52 53 53 53 54 53 52 52 51 51 52 53 53 54 53 55 55 56 57 58 60 59 61 63 63 63 62 63 63 62 62 62 61 60 60 61
40 37 38 40 44 44 41 38 43 49 49 52 55 56 58 56 53 51 50 48 48 48 49 51 51 51 51 52 55 56 56 56 55 56 57 57 57 58 58 58 58 59 61 60 61 60 60 59 60
37 45 44 42 38 31 40 25 36 44 46 47 51 54 55 53 53 52 49 47 47 46 48 49 49 50 52 51 52 52 52 50 51 53 54 54 53 54 55 55 56 56 56 55 56 58 59 60 58
40 46 44 42 36 32 33 29 33 40 41 47 49 51 55 54 52 51 49 49 48 47 46 46 47 48 49 49 49 49 48 49 49 49 49 49 49 49 50 50 51 52 52 50 52 53 55 56 58
47 43 42 38 36 28 33 33 28 39 46 46 50 51 51 50 50 49 48 49 47 46 45 45 46 46 47 47 47 47 47 46 45 45 44 45 45 45 46 47 47 47 47 47 47 48 49 51 53
45 38 27 25 26 23 32 32 38 43 48 50 51 52 51 49 49 48 47 45 45 44 44 44 44 43 45 45 45 45 44 44 44 42 42 42 42 42 42 43 43 44 45 45 45 45 45 45 44
41 40 29 19 22 23 31 27 35 45 50 52 52 51 47 46 48 47 46 45 44 44 43 43 42 42 42 43 42 42 43 42 41 41 40 40 40 40 41 42 42 43 43 43 43 42 43 42 41
38 37 42 30 21 21 28 32 41 45 47 48 46 46 45 46 46 46 45 45 44 42 41 41 41 40 41 41 41 41 41 40 39 39 39 38 39 43 40 40 41 41 41 41 41 39 39 39 40
41 45 32 27 15 14 26 27 33 38 44 46 45 47 47 47 45 45 45 44 42 42 41 40 40 40 40 40 39 39 38 38 38 37 36 37 37 38 38 38 39 39 38 38 38 37 38 38 38
39 37 38 39 28 20 18 27 39 45 45 45 46 47 47 46 46 46 45 43 42 41 39 39 38 38 37 38 37 36 36 36 36 35 35 35 36 36 36 37 37 36 36 36 35 36 35 35 36
46 42 41 32 25 28 28 33 44 44 47 47 48 48 47 48 47 47 45 42 41 40 39 39 37 37 36 36 36 35 35 34 33 33 33 34 33 35 35 35 36 35 34 34 33 32 33 33 34
MSLP
1011.94 1011.53 1011.78 1012.19 1014.10 1015.44 1016.38 1016.66 1016.26 1016.03 1016.16 1016.30 1016.19 1016.49 1017.64 1018.13 1018.45 1019.13 1018.75 1018.93 1019.14 1019.63 1019.90 1020.10 1020.29 1020.46 1020.55 1020.68 1020.82 1020.90 1020.91 1020.90 1020.96 1021.08 1021.15 1021.20 1021.25 1021.31 1021.41 1021.39 1021.42 1021.55 1021.61 1021.51 1021.66 1021.74 1021.89 1021.97 1021.96
1011.77 1011.42 1011.98 1013.08 1015.00 1016.65 1017.19 1016.70 1016.20 1015.97 1016.28 1016.41 1016.63 1017.26 1017.71 1018.63 1018.43 1018.71 1018.96 1019.05 1019.16 1019.57 1019.89 1020.13 1020.37 1020.56 1020.67 1020.80 1020.91 1021.00 1021.03 1021.04 1021.08 1021.24 1021.34 1021.43 1021.55 1021.62 1021.58 1021.62 1021.70 1021.61 1021.78 1021.70 1021.89 1021.96 1022.05 1022.12 1022.12
1011.37 1011.53 1012.78 1013.93 1015.68 1016.56 1016.71 1016.60 1015.91 1015.93 1016.12 1016.25 1017.01 1017.56 1018.02 1018.60 1018.52 1018.50 1018.40 1018.86 1019.28 1019.61 1019.90 1020.22 1020.46 1020.64 1020.77 1020.92 1021.05 1021.15 1021.17 1021.16 1021.20 1021.28 1021.33 1021.44 1021.60 1021.79 1021.86 1021.93 1021.93 1021.96 1021.97 1021.88 1022.07 1022.17 1022.26 1022.24 1022.21
1011.61 1012.07 1013.54 1014.35 1015.72 1016.05 1015.87 1015.90 1015.56 1015.83 1016.15 1016.38 1017.09 1018.13 1018.32 1018.25 1018.12 1018.08 1018.40 1018.74 1019.19 1019.63 1019.93 1020.18 1020.38 1020.61 1020.79 1020.95 1021.07 1021.16 1021.24 1021.27 1021.30 1021.36 1021.40 1021.48 1021.51 1021.68 1021.83 1021.98 1022.07 1022.07 1022.05 1022.15 1022.22 1022.26 1022.36 1022.38 1022.30
1012.07 1013.29 1014.72 1015.62 1015.80 1015.77 1015.63 1015.46 1015.34 1015.76 1016.17 1016.82 1017.11 1018.43 1018.59 1018.33 1017.93 1018.12 1018.46 1018.50 1019.04 1019.63 1019.93 1020.21 1020.37 1020.55 1020.78 1020.95 1021.12 1021.26 1021.32 1021.38 1021.44 1021.47 1021.53 1021.62 1021.71 1021.84 1021.94 1022.00 1022.05 1022.12 1022.21 1022.29 1022.35 1022.45 1022.51 1022.52 1022.42
1013.38 1014.33 1015.79 1016.29 1016.10 1015.74 1015.49 1015.26 1015.54 1015.87 1016.52 1016.97 1017.69 1018.27 1018.84 1018.55 1018.30 1018.37 1018.48 1018.72 1018.98 1019.44 1019.88 1020.16 1020.36 1020.55 1020.74 1020.94 1021.12 1021.27 1021.37 1021.43 1021.48 1021.57 1021.62 1021.73 1021.82 1021.90 1021.97 1022.02 1022.11 1022.25 1022.30 1022.39 1022.45 1022.59 1022.69 1022.71 1022.66
1014.12 1015.20 1016.05 1016.41 1016.18 1015.57 1015.28 1015.11 1015.69 1016.01 1016.47 1016.82 1017.12 1018.52 1019.00 1018.80 1018.47 1018.44 1018.60 1018.65 1018.98 1019.24 1019.72 1020.11 1020.32 1020.55 1020.74 1020.92 1021.05 1021.19 1021.31 1021.41 1021.48 1021.55 1021.63 1021.71 1021.85 1021.95 1022.01 1022.08 1022.11 1022.16 1022.24 1022.34 1022.43 1022.56 1022.66 1022.69 1022.70
1014.79 1015.40 1016.16 1016.28 1016.02 1015.60 1015.23 1015.38 1015.68 1016.04 1016.62 1016.56 1016.87 1018.17 1019.01 1018.52 1018.44 1018.61 1018.82 1019.01 1019.32 1019.37 1019.47 1019.93 1020.17 1020.40 1020.63 1020.80 1020.87 1020.99 1021.13 1021.30 1021.41 1021.49 1021.58 1021.61 1021.73 1021.86 1021.97 1022.06 1022.13 1022.14 1022.16 1022.23 1022.34 1022.49 1022.61 1022.63 1022.62
1014.85 1015.69 1016.31 1016.06 1015.91 1015.39 1015.36 1015.45 1015.72 1016.04 1016.57 1017.08 1017.40 1017.49 1017.49 1018.08 1018.51 1018.94 1019.28 1019.50 1019.54 1019.60 1019.55 1019.79 1020.07 1020.22 1020.33 1020.48 1020.70 1020.97 1021.07 1021.18 1021.29 1021.45 1021.56 1021.68 1021.82 1021.89 1021.97 1022.02 1022.05 1022.05 1022.09 1022.15 1022.26 1022.37 1022.49 1022.61 1022.68
1015.52 1016.08 1015.93 1015.55 1015.24 1015.22 1015.33 1015.43 1015.82 1016.51 1017.11 1017.78 1017.86 1017.91 1017.95 1018.28 1018.62 1019.07 1019.32 1019.48 1019.50 1019.59 1019.63 1019.62 1019.83 1019.97 1020.12 1020.15 1020.33 1020.62 1020.80 1021.03 1021.15 1021.25 1021.41 1021.60 1021.72 1021.84 1021.89 1021.96 1021.98 1022.01 1022.04 1022.09 1022.15 1022.21 1022.29 1022.44 1022.67
1015.99 1016.27 1015.89 1015.62 1015.27 1015.06 1015.34 1015.68 1015.77 1016.46 1017.20 1017.34 1017.82 1018.14 1018.31 1018.53 1018.78 1018.91 1019.14 1019.20 1019.09 1019.09 1019.27 1019.41 1019.44 1019.56 1019.76 1019.89 1020.06 1020.30 1020.35 1020.68 1020.86 1021.00 1021.19 1021.32 1021.47 1021.61 1021.78 1021.93 1021.95 1021.97 1022.03 1022.14 1022.12 1022.21 1022.33 1022.49 1022.62
1016.29 1016.36 1016.12 1015.92 1015.74 1015.60 1015.76 1015.86 1016.10 1016.28 1016.39 1016.37 1017.10 1017.41 1018.05 1018.49 1018.71 1018.80 1018.90 1018.99 1018.98 1019.05 1018.93 1018.99 1019.02 1019.30 1019.43 1019.58 1019.84 1019.86 1020.00 1020.16 1020.42 1020.55 1020.63 1020.90 1021.17 1021.39 1021.55 1021.69 1021.68 1021.82 1021.84 1022.01 1022.12 1022.23 1022.27 1022.37 1022.44
1016.50 1016.64 1016.58 1016.44 1016.23 1016.38 1016.22 1016.51 1016.61 1016.43 1016.26 1016.60 1017.35 1017.81 1018.01 1018.18 1018.34 1018.31 1018.41 1018.46 1018.46 1018.69 1018.67 1018.76 1018.82 1019.05 1019.17 1019.39 1019.46 1019.62 1019.75 1019.80 1019.80 1019.89 1020.06 1020.31 1020.57 1020.78 1021.09 1021.30 1021.46 1021.57 1021.66 1021.83 1021.97 1022.05 1022.09 1022.13 1022.13
1017.00 1016.93 1016.90 1016.97 1016.76 1016.83 1016.95 1017.15 1016.77 1016.97 1016.93 1017.19 1017.62 1017.96 1018.09 1017.97 1017.91 1018.01 1018.13 1018.20 1018.32 1018.45 1018.52 1018.57 1018.77 1018.81 1019.03 1019.21 1019.25 1019.20 1019.25 1019.27 1019.48 1019.57 1019.63 1019.74 1019.85 1020.12 1020.45 1020.77 1021.03 1021.21 1021.28 1021.34 1021.48 1021.58 1021.68 1021.72 1021.81
1017.52 1017.70 1017.49 1017.52 1017.39 1017.31 1017.35 1017.76 1017.33 1017.44 1017.55 1017.96 1018.10 1018.03 1018.10 1017.88 1017.84 1017.78 1017.68 1017.76 1018.04 1018.39 1018.51 1018.78 1018.78 1018.82 1018.88 1018.95 1018.92 1018.92 1018.93 1018.97 1019.12 1019.20 1019.26 1019.40 1019.60 1019.76 1019.80 1020.14 1020.34 1020.52 1020.63 1020.85 1021.07 1021.20 1021.30 1021.43 1021.42
1018.51 1018.71 1018.77 1017.95 1017.81 1017.67 1017.86 1018.13 1017.55 1017.68 1018.19 1018.53 1018.66 1018.62 1018.41 1018.05 1017.77 1017.67 1017.52 1017.76 1017.98 1018.30 1018.66 1018.70 1018.61 1018.68 1018.77 1018.90 1018.90 1018.69 1018.59 1018.67 1018.75 1018.85 1018.88 1018.97 1019.13 1019.25 1019.35 1019.50 1019.82 1019.84 1020.03 1020.20 1020.43 1020.61 1020.93 1021.05 1021.12
1019.84 1019.74 1019.62 1018.84 1018.18 1018.19 1018.58 1018.71 1017.83 1017.83 1018.06 1018.57 1018.72 1018.80 1018.66 1018.30 1017.97 1017.80 1017.86 1017.95 1018.18 1018.41 1018.69 1018.91 1018.94 1018.96 1018.88 1018.71 1018.70 1018.67 1018.49 1018.49 1018.42 1018.51 1018.64 1018.65 1018.76 1018.75 1019.02 1019.15 1019.28 1019.44 1019.65 1019.84 1019.97 1020.14 1020.31 1020.36 1020.45
1020.12 1020.25 1019.78 1019.31 1018.77 1018.84 1018.99 1018.97 1018.32 1018.13 1018.27 1018.63 1018.70 1018.68 1018.77 1018.37 1017.99 1018.04 1018.35 1018.60 1018.87 1019.00 1019.07 1019.18 1019.20 1019.13 1018.95 1018.74 1018.63 1018.51 1018.41 1018.38 1018.33 1018.27 1018.27 1018.30 1018.35 1018.42 1018.68 1018.91 1019.06 1019.23 1019.36 1019.52 1019.58 1019.76 1019.89 1019.88 1019.87
1019.74 1020.08 1020.01 1019.79 1019.08 1019.32 1019.36 1019.28 1018.85 1018.41 1018.64 1018.69 1018.64 1018.48 1018.68 1018.45 1018.06 1018.26 1018.65 1018.99 1019.22 1019.49 1019.40 1019.44 1019.40 1019.39 1019.22 1019.12 1019.08 1018.88 1018.80 1018.53 1018.49 1018.27 1018.16 1018.21 1018.27 1018.37 1018.58 1018.90 1019.05 1018.96 1019.17 1019.24 1019.35 1019.53 1019.58 1019.68 1019.60
1020.17 1020.37 1020.36 1020.12 1019.71 1019.84 1019.77 1019.63 1019.20 1018.83 1018.57 1018.29 1018.06 1018.04 1018.02 1018.25 1018.45 1018.76 1019.15 1019.31 1019.43 1019.65 1019.69 1019.75 1019.72 1019.44 1019.35 1019.29 1019.07 1018.96 1018.86 1019.04 1018.96 1018.83 1018.80 1018.58 1018.62 1018.98 1019.02 1019.10 1019.21 1019.10 1019.21 1019.19 1019.24 1019.35 1019.41 1019.34 1019.24
1020.32 1020.39 1020.48 1020.60 1020.50 1020.44 1020.51 1019.96 1019.37 1018.28 1017.91 1017.49 1017.12 1016.86 1016.89 1017.45 1018.34 1018.85 1019.36 1019.73 1019.79 1019.88 1020.02 1020.13 1020.06 1019.70 1019.61 1019.41 1019.09 1018.92 1019.11 1019.22 1019.47 1019.48 1019.49 1019.66 1019.63 1019.49 1019.66 1019.89 1019.83 1019.60 1019.25 1019.41 1019.33 1019.28 1019.28 1019.25 1018.97
1020.25 1020.15 1020.55 1021.01 1021.44 1021.67 1021.47 1020.66 1019.50 1018.53 1017.79 1017.33 1016.56 1016.15 1016.12 1016.68 1017.57 1018.43 1019.07 1019.62 1019.82 1020.14 1020.31 1020.35 1020.29 1019.95 1019.99 1019.80 1019.55 1019.38 1019.58 1020.09 1020.59 1020.56 1020.56 1020.62 1020.74 1020.46 1020.60 1020.48 1020.50 1020.34 1020.12 1020.05 1019.93 1019.58 1019.30 1019.05 1019.00
1019.82 1019.99 1020.68 1021.33 1021.88 1022.21 1022.15 1022.25 1019.00 1018.38 1017.73 1016.74 1015.86 1015.61 1015.49 1015.68 1016.54 1017.57 1018.62 1019.16 1019.68 1020.12 1020.50 1020.59 1020.48 1020.31 1020.41 1020.26 1020.12 1020.13 1020.39 1020.77 1020.96 1021.03 1021.14 1021.30 1021.39 1021.53 1021.38 1021.12 1021.06 1020.89 1020.86 1020.80 1020.47 1020.03 1019.78 1019.61 1019.09
1019.59 1020.42 1021.26 1022.01 1022.58 1022.41 1021.93 1022.10 1018.74 1017.88 1016.53 1015.77 1015.24 1014.99 1015.07 1015.69 1016.44 1017.55 1018.50 1019.11 1019.71 1020.27 1020.60 1020.61 1020.53 1020.70 1020.80 1020.76 1020.72 1020.71 1020.87 1021.15 1021.32 1021.58 1021.73 1021.92 1021.99 1022.09 1021.84 1021.64 1021.57 1021.52 1021.44 1021.29 1021.02 1020.74 1020.49 1020.26 1020.05
1019.53 1020.77 1022.30 1023.17 1023.44 1022.16 1021.37 1021.41 1017.33 1016.87 1015.82 1015.35 1014.92 1014.65 1014.99 1015.60 1016.46 1017.42 1018.37 1019.14 1019.82 1020.29 1020.64 1020.75 1020.77 1021.15 1021.25 1021.24 1021.27 1021.32 1021.39 1021.55 1021.83 1022.19 1022.43 1022.38 1022.44 1022.59 1022.51 1022.22 1022.09 1021.97 1021.82 1021.66 1021.45 1021.30 1021.18 1021.13 1021.07
1018.84 1019.90 1021.04 1022.22 1023.08 1022.37 1021.61 1019.89 1017.04 1015.62 1014.91 1014.75 1014.51 1014.67 1015.34 1016.29 1016.86 1017.50 1018.25 1018.99 1019.63 1020.21 1020.59 1020.69 1020.97 1021.39 1021.58 1021.72 1021.88 1021.93 1021.98 1022.16 1022.34 1022.50 1022.44 1022.62 1022.88 1022.94 1022.84 1022.62 1022.45 1022.36 1022.19 1022.03 1021.97 1021.98 1021.88 1021.87 1021.79
1018.97 1019.38 1020.28 1021.71 1023.08 1022.81 1020.90 1018.83 1016.84 1015.34 1014.92 1014.60 1014.64 1015.12 1015.64 1016.17 1016.75 1017.44 1018.28 1018.90 1019.58 1020.06 1020.43 1020.72 1021.15 1021.56 1021.83 1022.07 1022.22 1022.34 1022.55 1022.60 1022.62 1022.68 1022.75 1023.00 1023.04 1022.86 1023.06 1022.91 1022.84 1022.76 1022.74 1022.64 1022.54 1022.61 1022.57 1022.48 1022.41
1017.96 1018.82 1020.25 1021.42 1022.67 1022.36 1020.20 1018.74 1016.43 1015.36 1014.95 1014.75 1015.00 1015.23 1015.56 1016.38 1017.08 1017.67 1018.29 1018.82 1019.39 1019.82 1020.34 1020.84 1021.18 1021.62 1022.04 1022.32 1022.55 1022.73 1022.85 1022.86 1022.98 1023.15 1023.27 1023.39 1023.39 1023.29 1023.24 1023.16 1023.15 1023.24 1023.28 1023.17 1023.04 1023.13 1023.15 1023.06 1023.01
1018.04 1018.31 1019.02 1019.79 1020.81 1020.67 1019.72 1017.14 1015.20 1014.43 1014.38 1014.69 1015.08 1015.41 1015.79 1016.22 1016.84 1017.49 1018.05 1018.61 1019.14 1019.71 1020.22 1020.71 1021.24 1021.72 1022.22 1022.43 1022.74 1022.95 1023.16 1023.30 1023.53 1023.55 1023.64 1023.71 1023.68 1023.58 1023.49 1023.47 1023.57 1023.69 1023.76 1023.73 1023.69 1023.66 1023.70 1023.61 1023.60
1017.07 1017.19 1017.91 1018.51 1019.57 1019.69 1018.83 1015.06 1014.34 1013.93 1014.07 1014.11 1014.56 1014.90 1015.19 1015.87 1016.64 1017.23 1017.79 1018.50 1019.19 1019.71 1020.20 1020.59 1021.10 1021.54 1021.92 1022.26 1022.74 1023.22 1023.45 1023.84 1023.94 1024.01 1024.09 1024.02 1023.93 1023.67 1023.54 1023.60 1023.83 1024.03 1024.11 1024.17 1024.14 1024.20 1024.20 1024.15 1024.13
Wind_Speed
10 8 2 5 6 6 2 2 3 2 4 3 3 12 8 4 3 4 2 11 12 9 7 8 10 10 10 10 10 9 8 8 12 11 11 11 11 11 12 11 9 13 9 12 12 12 10 10 9
7 3 5 3 7 4 2 2 5 3 6 8 8 4 7 3 3 6 5 9 12 10 7 7 11 10 10 9 8 8 8 8 11 10 10 9 10 9 10 9 10 10 10 9 11 11 10 8 6
5 0 4 5 5 5 6 5 6 5 10 4 5 5 4 2 2 6 8 12 11 9 8 7 10 10 10 9 8 7 8 8 10 10 10 10 9 9 8 7 6 7 7 7 10 10 8 8 5
3 5 5 6 5 1 7 7 5 6 4 6 5 7 4 2 6 7 11 13 12 9 8 10 11 11 10 9 9 8 8 8 9 9 10 9 11 11 10 7 5 6 7 8 9 8 7 7 5
4 4 5 4 4 3 2 5 8 4 4 4 2 3 3 3 6 9 9 10 12 8 8 8 11 11 10 9 9 7 6 6 6 7 9 10 10 11 9 9 5 6 5 4 6 7 5 6 8
5 4 5 4 2 3 4 5 5 6 4 5 7 6 2 2 5 6 8 10 11 11 9 7 10 10 10 9 8 7 6 5 5 5 7 8 9 10 10 9 8 5 4 1 5 5 2 3 4
5 4 4 5 5 2 4 4 4 7 5 3 9 5 2 3 6 6 6 8 9 10 9 7 7 7 8 8 7 7 7 7 6 5 6 7 8 8 9 8 9 9 8 6 5 5 3 2 1
4 4 5 3 6 4 4 3 6 5 2 3 5 7 5 6 8 7 6 7 7 6 8 7 6 6 6 6 9 9 8 6 6 6 6 7 8 8 8 8 9 10 9 8 7 6 6 5 5
2 5 1 3 6 5 4 5 2 3 7 3 4 5 6 10 8 6 4 4 4 3 6 6 6 7 7 6 6 7 7 7 7 6 6 5 4 5 6 6 8 10 10 9 9 8 7 6 6
5 4 2 2 5 6 6 6 8 5 4 5 5 6 6 8 7 8 7 6 6 6 6 7 6 7 6 5 6 6 6 4 4 5 5 4 4 4 5 6 9 10 9 10 9 9 9 6 3
1 2 4 4 2 4 7 4 3 11 2 7 12 10 8 6 7 8 7 7 9 7 5 7 8 7 7 5 4 3 3 3 3 6 5 5 4 4 3 3 3 4 6 3 5 4 3 4 4
2 3 3 5 6 4 5 4 5 4 6 10 13 15 9 9 9 8 8 8 6 6 8 8 8 7 7 4 4 4 4 4 4 5 7 5 4 4 4 3 4 4 3 5 4 3 4 5 5
2 2 4 3 7 5 3 5 0 5 1 8 9 8 11 10 9 7 8 8 8 7 7 8 6 6 5 6 4 4 5 4 5 5 6 5 4 4 4 4 3 4 3 4 4 4 4 5 5
1 2 4 1 2 3 4 4 3 3 3 9 10 10 9 9 10 6 7 8 7 6 6 4 6 6 5 6 6 5 4 5 4 4 5 7 5 5 4 4 4 4 4 4 4 5 5 5 4
1 1 3 2 2 1 4 5 7 4 2 5 8 9 9 9 8 9 9 7 7 4 5 4 5 4 2 5 6 5 5 4 4 5 6 6 5 5 6 4 4 5 4 5 4 4 3 4 4
3 5 2 3 6 3 6 7 8 2 5 8 9 7 7 8 9 8 8 5 7 7 5 3 4 5 4 2 4 4 4 4 4 4 4 7 6 7 5 4 4 5 4 5 4 4 4 4 4
5 3 3 6 7 3 4 6 8 0 6 8 8 8 8 8 7 6 3 8 7 7 5 4 5 5 4 4 3 4 5 4 4 4 4 6 6 5 4 4 4 4 3 4 4 4 5 5 5
8 6 5 6 1 4 6 8 7 5 1 5 6 8 8 8 10 4 7 6 6 5 6 5 4 5 5 3 3 2 2 3 3 4 4 6 5 6 3 3 4 4 3 3 3 5 3 5 5
5 4 5 3 5 3 8 8 11 8 3 7 9 8 7 9 3 6 6 6 7 5 6 5 5 5 4 3 2 2 2 2 2 3 4 4 3 3 3 1 3 3 3 4 3 2 3 3 4
4 5 3 4 4 5 3 7 9 7 6 8 10 9 11 5 5 6 6 4 4 5 5 5 5 6 4 2 2 2 0 3 3 4 8 7 7 6 4 6 4 4 3 4 3 3 2 3 3
4 5 4 4 4 4 6 7 7 8 6 10 14 13 11 14 11 8 8 6 6 5 5 5 4 6 5 5 2 1 3 3 4 4 5 9 9 9 9 8 6 6 4 3 3 3 4 3 3
6 7 5 3 2 4 2 8 6 6 9 6 15 16 17 10 8 8 9 7 7 5 5 5 4 6 5 6 4 5 3 3 3 3 5 7 9 11 8 8 7 7 5 6 5 6 4 3 4
5 7 7 4 3 0 3 4 7 4 6 12 10 12 15 15 12 14 10 8 7 7 6 5 5 7 6 6 5 4 6 4 3 3 6 6 7 8 8 8 7 7 5 5 6 6 5 5 3
7 6 5 4 2 7 9 8 6 7 11 5 7 8 8 8 9 9 7 8 7 6 6 6 6 6 5 5 6 6 7 5 4 4 4 4 4 4 7 6 5 5 5 5 4 5 6 6 5
6 8 2 1 4 8 2 9 12 7 9 8 8 8 7 8 12 13 13 9 8 8 7 6 6 5 5 6 6 6 6 6 6 5 3 4 3 3 5 5 6 4 5 6 5 6 7 7 6
11 10 6 9 7 5 2 9 8 10 9 9 10 6 5 7 9 11 11 8 8 8 7 7 7 6 5 5 6 5 5 4 4 4 4 4 3 3 4 5 5 6 6 6 6 6 5 6 6
6 10 6 4 2 2 5 7 9 9 9 5 3 5 8 10 11 11 9 9 9 8 8 7 7 5 5 5 4 5 4 5 4 5 5 3 3 4 4 5 5 6 7 7 6 5 6 6 6
7 8 3 2 2 5 5 6 8 2 10 5 5 8 7 6 8 8 9 9 7 7 6 7 6 6 5 5 4 4 4 5 5 4 5 5 4 4 4 5 5 6 7 6 6 5 6 6 5
6 7 5 5 6 6 2 7 8 14 6 8 7 7 7 8 9 10 9 7 7 6 7 7 7 7 6 6 5 5 4 5 4 4 4 4 4 4 4 4 6 6 7 7 7 6 7 7 6
16 10 15 7 5 5 3 15 3 6 8 4 5 7 8 8 7 8 8 8 8 9 8 9 7 7 6 6 5 5 5 4 4 4 3 3 4 4 5 5 7 7 7 6 7 6 5 6 8
Wind_Direction
316 311 167 52 61 66 66 19 162 144 60 354 28 91 107 64 55 159 82 129 123 135 140 139 132 129 123 118 114 114 115 123 117 115 116 112 107 104 108 105 100 113 88 81 91 86 80 73 75
305 313 46 91 87 82 312 288 112 129 127 130 91 74 56 63 79 121 94 142 138 139 143 138 137 138 132 129 119 112 122 128 125 119 127 125 113 114 111 107 103 111 112 105 96 91 80 75 76
290 212 82 92 114 148 159 218 154 153 163 143 101 58 84 82 126 144 144 145 135 144 143 142 146 143 144 142 137 126 120 132 133 127 132 133 127 122 111 100 89 118 118 112 105 92 76 60 54
0 11 28 78 113 343 152 189 153 137 104 76 116 69 51 253 158 144 152 146 139 147 149 156 154 153 155 153 153 149 143 141 149 147 147 147 150 144 138 140 113 102 142 106 98 82 63 50 357
34 55 58 60 48 86 70 180 148 117 91 60 138 99 81 357 119 124 148 146 135 141 144 155 158 160 164 165 166 166 161 164 176 169 159 156 160 159 152 147 138 123 135 122 106 91 63 55 47
44 86 71 121 175 158 116 156 106 87 109 144 78 102 107 168 114 151 136 142 138 142 151 156 165 168 170 173 176 179 180 175 171 170 179 173 174 175 171 168 163 167 179 172 116 99 68 40 48
95 80 184 144 166 60 112 89 115 129 132 84 146 91 142 182 177 154 143 135 146 149 150 159 169 176 179 182 185 193 195 196 193 191 192 193 184 187 184 184 181 185 198 200 175 162 188 235 222
92 85 128 172 169 199 155 92 119 118 112 107 141 150 186 206 184 136 132 140 141 161 157 170 173 175 181 191 198 196 197 202 208 211 210 203 195 200 201 203 209 206 205 208 194 195 207 228 245
73 71 142 164 175 177 185 117 66 39 93 61 352 140 169 154 130 117 123 121 149 187 167 169 177 186 192 196 200 204 206 208 219 224 222 213 214 216 220 221 221 227 220 217 211 206 213 230 249
69 83 194 258 171 169 158 137 145 101 109 29 67 47 102 132 146 148 167 175 182 189 195 185 189 197 192 199 194 197 198 200 211 215 215 213 214 222 220 229 232 234 232 229 225 216 219 226 237
17 86 307 356 43 121 137 126 127 124 198 191 166 164 159 157 169 172 192 192 196 195 186 194 195 200 194 199 188 188 183 188 208 212 215 215 212 220 229 243 247 231 241 242 242 245 231 229 232
92 29 350 344 8 75 133 148 84 169 216 170 173 163 159 171 184 194 200 211 208 199 210 201 199 195 204 191 191 200 183 188 195 208 206 197 206 223 230 227 235 220 214 224 230 229 236 239 240
119 52 47 30 40 50 47 52 138 175 275 140 144 165 176 180 194 204 199 201 192 198 212 218 202 209 212 203 204 206 213 194 204 201 203 194 202 207 210 219 216 220 211 217 230 230 231 234 239
180 123 154 59 39 59 69 344 45 240 89 134 159 186 196 191 193 182 178 190 180 163 153 162 196 223 220 215 221 217 207 210 211 220 216 205 197 199 197 212 216 216 211 219 221 218 222 234 227
62 112 9 141 176 125 117 326 251 128 133 187 196 192 196 206 195 187 186 182 157 166 143 147 149 131 194 240 237 226 223 215 215 218 223 225 217 212 187 204 213 217 214 223 227 237 232 240 235
86 52 120 268 154 223 112 251 258 210 161 228 237 245 241 234 207 203 199 153 152 138 139 81 48 42 37 334 266 249 234 221 224 223 217 218 217 212 207 198 214 213 208 214 210 217 231 228 229
7 182 195 298 206 134 165 239 259 250 182 243 245 244 234 246 255 249 170 160 146 136 128 85 58 42 8 326 304 263 255 240 235 225 216 223 219 215 199 206 216 210 214 208 212 217 217 233 232
195 195 214 203 213 201 211 228 256 235 217 246 271 249 241 239 242 194 148 117 104 102 98 91 71 30 8 335 308 297 269 256 250 240 221 220 225 220 205 253 232 215 221 228 216 235 215 238 243
136 159 191 228 265 194 224 237 240 266 294 269 258 254 242 241 251 144 135 129 115 78 84 65 63 25 33 9 352 3 326 324 24 339 276 260 246 136 174 197 275 266 242 230 226 216 240 239 229
127 155 208 284 282 187 261 256 251 251 238 229 240 238 234 221 174 165 159 160 118 117 90 67 54 42 22 1 279 225 249 50 59 36 38 30 56 38 33 24 344 324 297 282 261 234 246 238 197
207 181 174 209 350 342 344 283 246 262 239 239 245 235 241 208 189 179 176 159 127 107 107 90 62 52 24 347 322 86 85 51 23 12 43 39 44 53 51 37 27 16 360 328 311 279 235 257 258
212 184 170 182 86 236 80 284 275 258 259 232 244 233 235 217 164 181 165 165 148 141 120 102 77 65 39 6 30 59 88 108 48 37 56 52 36 43 40 42 29 27 19 19 3 2 321 231 255
205 156 171 168 194 255 201 293 265 261 279 257 256 237 234 214 178 176 168 157 150 144 137 121 95 70 50 45 54 77 87 87 87 63 67 54 47 41 34 36 28 34 25 8 11 6 8 5 320
154 83 55 59 100 258 201 194 225 204 221 265 267 246 234 181 162 150 138 141 136 133 133 127 105 83 71 70 66 86 101 107 92 72 71 54 53 38 33 33 30 26 20 11 8 13 30 14 36
135 118 81 277 223 238 254 211 262 272 264 224 250 269 212 169 157 155 160 156 153 154 155 138 114 98 85 79 73 77 87 89 92 89 83 68 47 30 21 23 26 21 16 18 30 37 40 33 40
174 166 163 200 210 246 105 228 254 238 258 255 247 278 121 140 159 166 165 160 158 164 163 134 127 117 95 89 83 76 79 86 87 90 89 73 73 60 27 30 32 29 28 32 45 40 43 40 46
187 201 157 112 30 32 230 288 294 257 267 294 182 152 171 177 174 168 161 169 172 165 159 148 137 126 119 118 105 87 88 99 104 84 78 76 53 76 45 39 42 42 44 39 48 46 42 43 50
171 149 164 61 200 251 260 260 235 276 241 218 191 209 202 166 165 167 177 180 170 153 147 146 148 153 152 137 131 119 116 97 89 85 86 81 71 68 62 58 58 61 52 44 48 47 33 49 36
158 188 203 176 167 193 243 253 220 232 205 201 226 236 218 197 183 183 191 177 161 155 157 158 159 156 160 149 141 131 112 95 89 88 89 96 89 86 80 74 82 69 58 46 47 57 37 45 46
218 216 197 192 217 238 253 253 292 231 172 159 238 234 211 206 193 194 188 168 171 179 176 174 168 170 171 151 137 133 117 115 110 111 119 123 121 104 99 89 93 77 66 54 52 56 36 42 55